Location: Cornospital
(48.0620°N, 3.3837°W)
Time: 16:02:17
(UTC+00:00)

Cosmos 1626 - Pass Details

Date: 17 June 2021
Orbit: 489 x 493 km, 82.5° (Epoch: 30 July)

Event Time Altitude Azimuth Distance (km) Brightness Sun altitude
Exits shadow 21:04:10 - 143° (SE) 1,791 4.3 -6.8°
Reaches altitude 10° 21:04:29 10° 140° (SE) 1,683 4.1 -6.8°
Maximum altitude 21:07:22 22° 89° (E) 1,125 3.6 -7.1°
Drops below altitude 10° 21:10:16 10° 37° (NE) 1,697 5.0 -7.5°
Sets 21:12:42 0° 22° (NNE) 2,586 6.1 -7.7°
